Broken Bow, NE

4:13 AM CST on February 12, 2016 (GMT -0600)
Broken Bow Municipal

Weather History for KBBW - March, 2013

Change the Weather History Date:

Sunday, March 17, 2013

  Actual Average Record
Temperature  
Mean Temperature 31 °F 38 °F  
Max Temperature 40 °F 52 °F 83 °F (2012)
Min Temperature 22 °F 25 °F -10 °F (1906)
Degree Days  
Heating Degree Days 34 27  
Month to date heating degree days 527 507  
Cooling Degree Days 0 0  
Month to date cooling degree days 0 0  
Year to date cooling degree days 0 0  
Moisture  
Dew Point 25 °F    
Average Humidity 74    
Maximum Humidity 89    
Minimum Humidity 59    
Precipitation  
Precipitation 0.01 in 0.05 in 1.85 in (1987)
Sea Level Pressure  
Sea Level Pressure 29.84 in    
Wind  
Wind Speed 14 mph (SSE)    
Max Wind Speed 29 mph    
Max Gust Speed 37 mph    
Visibility 9 miles    
Events Rain , Snow    
T = Trace of Precipitation, MM = Missing Value Source: NWS Daily Summary

Daily Weather History Graph

Daily Weather History Graph

Search for Another Location

Airport or City:

Trip Planner

Search our weather history database for the weather conditions in past years. The results will help you decide how hot, cold, wet, or windy it might be!

Date:

Astronomy

Mar. 17, 2013 Rise Set
Actual Time 7:46 AM CDT 7:47 PM CDT
Civil Twilight 7:18 AM CDT 8:15 PM CDT
Nautical Twilight 6:46 AM CDT 8:47 PM CDT
Astronomical Twilight 6:14 AM CDT 9:20 PM CDT
Moon 10:56 AM CDT (3/17) 1:00 AM CDT (3/17)
Length of Visible Light 12h 56m
Length of Day
12h 01m
Waxing Crescent, 31% of the Moon is Illuminated
Mar 17
Waxing Crescent
Mar 19
First Quarter
Mar 27
Full
Apr 2
Last Quarter
Apr 10
New

Hourly Weather History & Observations

Time (CDT) Temp. Windchill Dew Point Humidity Pressure Visibility Wind Dir Wind Speed Gust Speed Precip Events Conditions
12:53 AM 28.0 °F 18.6 °F 18.0 °F 66% 30.09 in 10.0 mi ESE 10.4 mph 24.2 mph 0.00 in   Overcast
1:28 AM 28.4 °F 20.4 °F 17.6 °F 64% 30.03 in 10.0 mi ESE 8.1 mph - N/A   Overcast
1:44 AM 28.4 °F 20.4 °F 19.4 °F 69% 30.03 in 10.0 mi ESE 8.1 mph - N/A   Overcast
1:53 AM 28.0 °F 20.8 °F 19.0 °F 69% 30.10 in 10.0 mi East 6.9 mph - N/A   Overcast
2:53 AM 26.1 °F 16.2 °F 19.9 °F 78% 30.06 in 4.0 mi ESE 10.4 mph - 0.00 in Snow Light Snow
3:05 AM 26.6 °F 18.2 °F 19.4 °F 74% 29.98 in 9.0 mi East 8.1 mph - 0.00 in   Overcast
3:53 AM 24.1 °F 15.2 °F 19.9 °F 84% 30.03 in 10.0 mi SE 8.1 mph - 0.00 in   Partly Cloudy
4:46 AM 23.0 °F 15.8 °F 19.4 °F 86% 29.94 in 10.0 mi SE 5.8 mph - N/A   Mostly Cloudy
4:53 AM 23.0 °F 15.8 °F 19.9 °F 88% 30.02 in 10.0 mi SE 5.8 mph - N/A   Mostly Cloudy
5:15 AM 23.0 °F - 19.4 °F 86% 29.94 in 10.0 mi Calm Calm - N/A   Scattered Clouds
5:45 AM 21.2 °F 14.9 °F 19.4 °F 93% 29.94 in 10.0 mi SE 4.6 mph - N/A   Mostly Cloudy
5:53 AM 23.0 °F 17.0 °F 19.9 °F 88% 30.02 in 10.0 mi SE 4.6 mph - N/A   Mostly Cloudy
6:41 AM 24.8 °F 16.1 °F 21.2 °F 86% 29.95 in 10.0 mi SSE 8.1 mph - N/A   Overcast
6:53 AM 25.0 °F 15.5 °F 21.0 °F 85% 30.03 in 10.0 mi SSE 9.2 mph - N/A   Overcast
7:53 AM 25.0 °F 15.5 °F 21.9 °F 88% 30.01 in 8.0 mi SSE 9.2 mph - N/A   Overcast
8:53 AM 25.0 °F 13.1 °F 21.0 °F 85% 29.99 in 6.0 mi SSE 13.8 mph 23.0 mph N/A   Overcast
9:08 AM 26.6 °F 14.3 °F 21.2 °F 80% 29.91 in 7.0 mi SSE 16.1 mph 24.2 mph N/A   Overcast
9:53 AM 26.1 °F 13.1 °F 21.0 °F 81% 29.97 in 7.0 mi SSE 17.3 mph 26.5 mph N/A   Overcast
10:53 AM 27.0 °F 13.9 °F 21.0 °F 78% 29.94 in 9.0 mi SE 18.4 mph 26.5 mph N/A   Overcast
11:53 AM 28.9 °F 16.9 °F 23.0 °F 78% 29.91 in 10.0 mi South 17.3 mph 25.3 mph N/A   Overcast
12:53 PM 30.9 °F 18.1 °F 24.1 °F 76% 29.86 in 10.0 mi South 21.9 mph 34.5 mph N/A   Overcast
1:53 PM 32.0 °F 20.1 °F 25.0 °F 75% 29.83 in 10.0 mi South 19.6 mph - N/A   Overcast
2:20 PM 35.6 °F 25.2 °F 26.6 °F 70% 29.73 in 10.0 mi South 18.4 mph 33.4 mph N/A   Overcast
2:53 PM 37.0 °F 26.4 °F 27.0 °F 67% 29.76 in 10.0 mi SSE 20.7 mph 31.1 mph N/A   Overcast
3:22 PM 37.4 °F 26.6 °F 26.6 °F 65% 29.68 in 10.0 mi South 21.9 mph 35.7 mph N/A   Mostly Cloudy
3:34 PM 37.4 °F 27.2 °F 26.6 °F 65% 29.67 in 10.0 mi South 19.6 mph 34.5 mph N/A   Mostly Cloudy
3:53 PM 39.0 °F 28.8 °F 27.0 °F 62% 29.72 in 10.0 mi South 21.9 mph 33.4 mph N/A   Mostly Cloudy
4:53 PM 37.9 °F 29.6 °F 27.0 °F 65% 29.74 in 10.0 mi SW 13.8 mph 28.8 mph N/A   Overcast
5:29 PM 35.6 °F 28.6 °F 28.4 °F 75% 29.66 in 2.5 mi South 9.2 mph - 0.00 in Snow Light Snow
5:43 PM 35.6 °F 29.2 °F 30.2 °F 81% 29.66 in 5.0 mi South 8.1 mph - 0.00 in Snow Light Snow
5:51 PM 35.6 °F 30.7 °F 30.2 °F 81% 29.66 in 7.0 mi South 5.8 mph - 0.00 in Snow Light Snow
5:53 PM 36.0 °F 31.1 °F 30.9 °F 82% 29.73 in 8.0 mi South 5.8 mph - 0.00 in   Overcast
6:30 PM 35.6 °F 27.5 °F 30.2 °F 81% 29.65 in 8.0 mi SSE 11.5 mph 21.9 mph 0.01 in Rain Light Freezing Rain
6:53 PM 35.1 °F 24.8 °F 30.9 °F 85% 29.68 in 10.0 mi SE 17.3 mph 21.9 mph 0.01 in   Overcast
7:11 PM 35.6 °F 26.6 °F 30.2 °F 81% 29.61 in 10.0 mi SSE 13.8 mph 23.0 mph 0.00 in Rain Light Freezing Rain
7:30 PM 35.6 °F 27.5 °F 30.2 °F 81% 29.62 in 10.0 mi SSE 11.5 mph 24.2 mph 0.00 in   Overcast
7:53 PM 35.1 °F 26.9 °F 30.9 °F 85% 29.70 in 10.0 mi SSE 11.5 mph 21.9 mph 0.00 in   Overcast
8:53 PM 35.1 °F 24.8 °F 30.0 °F 82% 29.72 in 10.0 mi South 17.3 mph 23.0 mph N/A   Overcast
9:53 PM 34.0 °F 23.0 °F 30.0 °F 85% 29.68 in 10.0 mi South 18.4 mph 24.2 mph N/A   Mostly Cloudy
10:53 PM 33.1 °F 26.9 °F 30.0 °F 89% 29.74 in 9.0 mi Variable 6.9 mph - N/A   Overcast
11:16 PM 33.8 °F 25.3 °F 30.2 °F 87% 29.70 in 8.0 mi WSW 11.5 mph - 0.00 in Rain Light Rain
11:36 PM 33.8 °F 25.8 °F 30.2 °F 87% 29.71 in 10.0 mi West 10.4 mph - 0.00 in   Overcast
11:53 PM 35.1 °F 26.9 °F 30.9 °F 85% 29.79 in 10.0 mi WNW 11.5 mph - 0.00 in   Overcast